Regional Weather Roundup
Issued by NWS

Home | Current Version | Previous Version | Graphics & Text | Print | Product List | Glossary On
Versions: 1 2 3 4 5 6 7 8 9 10 11 12 13 14 15 16 17 18 19 20 21 22 23 24 25 26 27 28 29 30 31 32 33 34 35 36 37 38 39 40 41 42 43 44 45 46 47 48 49 50
213
ASUS43 KLOT 010008
RWRIL

ILLINOIS REGIONAL WEATHER ROUNDUP
NATIONAL WEATHER SERVICE CHICAGO/ROMEOVILLE IL
700 PM CDT TUE MAY 31 2016

NOTE: "FAIR" INDICATES FEW OR NO CLOUDS BELOW 12,000 FEET WITH NO
SIGNIFICANT WEATHER AND/OR OBSTRUCTIONS TO VISIBILITY.

* THESE STATIONS ARE NOT UNDER NWS QUALITY CONTROL. THEY ALSO MAY NOT
  REPORT WEATHER SUCH AS PRECIPITATION OR FOG.

ILZ001-002-007-009-015-016-024-010100-
NORTHWEST ILLINOIS

CITY           SKY/WX    TMP DP  RH WIND       PRES   REMARKS
MOLINE         CLOUDY    72  66  81 E3        29.89F
6HR MIN TEMP:  71; 6HR MAX TEMP:  81; 6HR PCP:  0.07;

SAVANNA*       CLOUDY    72  64  77 SE7       29.91S
$$

ILZ003-004-008-010-011-017-018-010100-
NORTH CENTRAL ILLINOIS

CITY           SKY/WX    TMP DP  RH WIND       PRES   REMARKS
ROCKFORD       CLOUDY    67  63  87 SE8       29.96R
6HR MIN TEMP:  65; 6HR MAX TEMP:  68; 6HR PCP:  0.30;

FREEPORT*      CLOUDY    67  63  88 E8        29.95S
ROCHELLE*      MOSUNNY   68  63  84 E15       29.94F
DE KALB*       CLOUDY    66  63  89 E12       29.96F
$$

ILZ005-006-012>014-019>023-010100-
NORTHEAST ILLINOIS

CITY           SKY/WX    TMP DP  RH WIND       PRES   REMARKS
CHICAGO-OHARE  PTSUNNY   67  63  87 NE7       29.97F
6HR MIN TEMP:  65; 6HR MAX TEMP:  83; 6HR PCP:  0.56;

CHICAGO-MIDWAY CLOUDY    69  64  84 NW3       29.97S
6HR MIN TEMP:  66; 6HR MAX TEMP:  84; 6HR PCP:  0.97;

AURORA         CLOUDY    68  63  84 E12       29.96S
6HR MIN TEMP:  66; 6HR MAX TEMP:  75; 6HR PCP:  0.28;

LANSING*       CLOUDY    67  63  87 NE8       29.97F
JOLIET*        PTSUNNY   69  64  84 NE6       29.96F
WAUKEGAN       CLOUDY    65  63  93 E6        29.97F
6HR MIN TEMP:  65; 6HR MAX TEMP:  77; 6HR PCP:  0.18;

DUPAGE AIRPORT CLOUDY    67  62  84 E10       29.96F
6HR MIN TEMP:  65; 6HR MAX TEMP:  78; 6HR PCP:  0.53;

KANKAKEE*      MOSUNNY   69  62  80 NE8       29.96F
WHEELING       CLOUDY    66  63  90 E6        29.99F
6HR MIN TEMP:  65; 6HR MAX TEMP:  80; 6HR PCP:  0.38;

MORRIS*        CLOUDY    68  64  84 E9        29.94F
ROMEOVILLE*    CLOUDY    66  62  85 E12       29.96F
NORTHERLY ISL    N/A     62  59  90 N10         N/A
$$

LMZ740>746-010100-
SOUTHERN LAKE MICHIGAN

STATION/POSITION SKY/WX   TEMP    WIND        PRES    VSBY  WAVE
                          AIR SEA DIR/SP/G                  HT/PER
                          (F)     (DEG/KT/KT) (MB)    (MI)  (FT/S)
SOUTHERN BUOY              56 55  350/  8/ 10 1015.3F         1/ 3
WILMETTE HARBOR            60 58   30/  6/  8   N/A           1/ 3
HARRISON CRIB              63     350/ 15/ 16   N/A
BURNHAM HARBOR             62     340/  7/ 12   N/A
CALUMET HARBOR             64                   N/A
BURNS HARBOR               62     250/  6/ 18 1016.9R
MICHIGAN CITY              61     190/  9/ 10   N/A
MICHIGAN CITY 6N           63 62   30/  8/ 10   N/A           2/ 3
ST. JOSEPH                 64 64  230/  6/ 10   N/A           3
$$

ILZ025>027-034>036-040-047-049-050-058-095>099-010100-
WEST-CENTRAL ILLINOIS

CITY           SKY/WX    TMP DP  RH WIND       PRES   REMARKS
QUINCY         MOSUNNY   79  62  56 SE6       29.88S HX  80
GALESBURG*     PTSUNNY   77  62  58 SE3       29.90S
MACOMB*        CLOUDY    80  61  52 S6        29.91S HX  81
JACKSONVILLE*  CLOUDY    79  64  59 SE8       29.89S HX  81
PITTSFIELD*    CLOUDY    80  65  59 SE5       29.89F HX  82
$$

ILZ028>032-037-038-041>044-048-051>054-059>061-010100-
CENTRAL ILLINOIS

CITY           SKY/WX    TMP DP  RH WIND       PRES   REMARKS
PONTIAC        CLOUDY    74  64  69 E14G21    29.96R
BLOOMINGTON    MOSUNNY   74  65  73 S3        29.97R
DECATUR        MOSUNNY   72  63  73 CALM      29.92F
PEORIA         LGT RAIN  77  63  61 S14G20    29.92R
6HR MIN TEMP:  70; 6HR MAX TEMP:  79; 6HR PCP: TRACE;

LACON*         CLOUDY    71  63  75 E13       29.92S
LINCOLN*       CLOUDY    75  61  60 CALM      29.91S
SPRINGFIELD    SUNNY     77  61  57 E6        29.90F
6HR MIN TEMP:  74; 6HR MAX TEMP:  83;

TAYLORVILLE    CLOUDY    73  67  82 E6        29.91S
6HR MIN TEMP:  66; 6HR MAX TEMP:  82; 6HR PCP:  0.66;

$$

ILZ033-039-045-046-055>057-062-063-010100-
EAST-CENTRAL ILLINOIS

CITY           SKY/WX    TMP DP  RH WIND       PRES   REMARKS
CHAMPAIGN      CLOUDY    69  62  78 N9        29.95R
RANTOUL*       LGT RAIN  70  65  84 NW13      29.96R
MATTOON        MOSUNNY   79  59  50 W6        29.91S HX  80
PARIS*         MOSUNNY   83  59  43 CALM      29.92S HX  83
$$

ILZ079-100>102-010100-
SOUTHWEST ILLINOIS

CITY           SKY/WX    TMP DP  RH WIND       PRES   REMARKS
ALTON          MOSUNNY   79  66  65 NE6       29.88S HX  81
BELLEVILLE     MOSUNNY   82  67  60 S5        29.87R HX  84
CAHOKIA*       SUNNY     83  62  49 S6        29.87R HX  84
SPARTA*        SUNNY     81  65  59 SE5       29.89S HX  82
$$

ILZ064>066-069>071-074>076-080>082-084>086-088>090-092>094-010100-
SOUTH-CENTRAL ILLINOIS

CITY           SKY/WX    TMP DP  RH WIND       PRES   REMARKS
CARBONDALE     SUNNY     82  62  50 S5        29.88S HX  83
6HR MIN TEMP:  81; 6HR MAX TEMP:  85;

CAIRO*         SUNNY     84  64  49 E3        29.87R HX  85
EFFINGHAM*     CLOUDY    76  67  72 CALM      29.92F
MARION         MOSUNNY   82  64  54 CALM      29.90R HX  84
MT. VERNON     MOSUNNY   75  63  64 CALM      29.90S
CENTRALIA*     PTSUNNY   72  65  77 W5        29.89F
SALEM*         CLOUDY    81  65  59 CALM      29.90S HX  83
METROPOLIS*    SUNNY     84  67  56 CALM      29.88S HX  87
$$

ILZ067-068-072-073-078-083-087-091-010100-
SOUTHEAST ILLINOIS

CITY           SKY/WX    TMP DP  RH WIND       PRES   REMARKS
LAWRENCEVILLE  SUNNY     83  60  45 S7        29.90S HX  83
FLORA*         SUNNY     79  66  63 N5        29.90S HX  81
FAIRFIELD*     CLOUDY    80  68  65 CALM      29.89R HX  83
HARRISBURG*    MOSUNNY   83  66  55 S6        29.89S HX  85
ROBINSON*      CLOUDY    78  64  62 S3        29.91S HX  80
CARMI*         MOSUNNY   82  64  54 SE3       29.89S HX  83
$$

ABBREVIATIONS USED IN REMARKS
   TC - TEMPERATURE IN CELSIUS
  WCI - WIND CHILL INDEX
   HX - HEAT INDEX
  VSB - VISIBILITY
$$





USA.gov is the U.S. government's official web portal to all federal, state and local government web resources and services.